Main page


Airports :

Udaipur, India

Maharana Pratap Airport

latitude: 24-37-04N, longitude: 73-53-46E, elevation: 513 m

Current weather observation

The report was made 8 hours and 6 minutes ago, at 15:00 UTC
Wind 2 kt from the North/Northeast
Temperature 25°C
Humidity 32%
Pressure 1011 hPa

METAR: VAUD 221500Z 03002KT 6 KM NSC 25/07 Q1011 NOSIG

Time: 04:36 (23:06 UTC)

TAF: missing

Weather observations and forecasts of more than 4000 airports (METAR and TAF reports).

The available stations are represented by yellow and red dots on the map.

Hover mouse over dot to see the name of the station.

Then click to see weather observations and forecasts.

To change the map : click on the green buttons with a black cross to zoom in, on the green button with a dash to zoom out, or on the green arrows for adjacent maps.